Back to catalog

USA 401

AliveMilitaryVLEO
NORAD 61022·PAYLOAD·🇺🇸 United States

Launched Sep 6, 2024 from Vandenberg Space Force Base

Loading…

Next Passes (next 24 hours)

TLE

StaleSource: Mike McCants

Epoch: Aug 24, 2026, 23:43 UTC

1 61022U 24160B   26236.98863858 0.00000000  00000-0  00000-0 0    01
2 61022  70.0193 199.2675 0003000 219.4926 140.5073 14.96713201    02

Track USA 401 in real time with AllMySat

Download on the App Store